Location: Ayer Observatory
(42.2600°N, 71.0700°W)
Time: 09:39:45
(UTC-04:00)

XW-2A - Pass Details

Date: 12 August 2020
Orbit: 428 x 443 km, 97.3° (Epoch: 21 September)

Event Time Altitude Azimuth Distance (km) Brightness Sun altitude
Exits shadow 20:56:59 17° 154° (SSE) 1,185 ? -12.1°
Maximum altitude 20:59:23 61° 76° (ENE) 491 ? -12.5°
Drops below altitude 10° 21:02:37 10° 355° (N) 1,535 ? -13.0°
Sets 21:04:39 0° 352° (N) 2,407 ? -13.3°
